Regional Weather Roundup
Issued by NWS

Home | Current Version | Previous Version | Text Only | Print | Product List | Glossary Off
Versions: 1 2 3 4 5 6 7 8 9 10 11 12 13 14 15 16 17 18 19 20 21 22 23 24 25 26 27 28 29 30 31 32 33 34 35 36 37 38 39 40 41 42 43 44 45 46 47 48 49 50

000
ASUS45 KBOI 211810
RWRID
WEATHER ROUNDUP FOR IDAHO
NATIONAL WEATHER SERVICE BOISE ID
1200 PM MDT THU AUG 21 2014

NOTE: "FAIR" INDICATES FEW OR NO CLOUDS BELOW 12000 FEET
WITH NO SIGNIFICANT WEATHER AND/OR OBSTRUCTIONS TO VISIBILITY

IDZ012-014-211900-
SOUTHWEST IDAHO


CITY           SKY/WX    TMP DP  RH WIND       PRES   REMARKS
BOISE          SUNNY     74  46  36 VRB3      30.00S
CALDWELL       SUNNY     73  39  29 N5        30.01F
MOUNTAIN HOME  MOSUNNY   74  45  35 VRB6      30.01S
$$

IDZ016-017-211900-
SOUTHCENTRAL IDAHO


CITY           SKY/WX    TMP DP  RH WIND       PRES   REMARKS
BURLEY         PTSUNNY   69  56  62 SW9       30.07R
JEROME         PTSUNNY   69  55  60 CALM      30.07R
TWIN FALLS     PTSUNNY   73  55  53 CALM      30.06F
$$

IDZ019>023-211900-
SOUTHEAST IDAHO


CITY           SKY/WX    TMP DP  RH WIND       PRES   REMARKS
IDAHO FALLS    PTSUNNY   66  54  65 SW8       30.12R
POCATELLO      PTSUNNY   69  53  56 VRB6      30.10S
REXBURG        CLOUDY    61  54  77 S7        30.13S
$$

IDZ006-010-011-018-031-032-211900-
CENTRAL IDAHO MOUNTAINS


CITY           SKY/WX    TMP DP  RH WIND       PRES   REMARKS
MCCALL         MOSUNNY   65  48  54 S9        30.05F
HAILEY         MOSUNNY   64  54  68 E7        30.12S
STANLEY          N/A     66  44  45 VRB5      30.13F
SALMON         SUNNY     64  52  63 CALM      30.05F
CHALLIS        MOSUNNY   64  51  62 CALM      30.08F
$$

IDZ002-004-006-007-026-211900-
NORTHERN IDAHO


CITY           SKY/WX    TMP DP  RH WIND       PRES   REMARKS
LEWISTON       SUNNY     74  44  34 W3        29.97F
LOWELL           N/A     76  54  46 CALM      29.93F
COEUR D`ALENE  MOSUNNY   66  55  68 N3        30.00S
MULLAN PASS    MOSUNNY   57  49  74 CALM      30.11S
$$


USA.gov is the U.S. government's official web portal to all federal, state and local government web resources and services.